Terminal Aerodrome Forecast
Issued by NWS

Home | Current Version | Previous Version | Text Only | Print | Product List | Glossary On
Versions: 1 2 3 4 5 6 7 8 9 10 11 12 13 14 15 16 17 18
000
FTUS43 KDMX 202339 AAA
TAFMCW
TAF AMD
KMCW 202339Z 2100/2124 15008KT 4SM TSRA SCT020CB BKN035
      TEMPO 2100/2102 2SM TSRA BR
     FM210200 18008KT 6SM BR VCTS SCT050CB BKN100
     FM210600 20006KT 4SM SHRA VCTS SCT030CB OVC060
     FM211200 23008KT 6SM BR VCSH SCT020 BKN040
     FM211700 33015G22KT P6SM FEW050 SCT120=

USA.gov is the U.S. government's official web portal to all federal, state and local government web resources and services.